Regional Weather Roundup
Issued by NWS Grand Forks, ND

Home | Current Version | Previous Version | Text Only | Print | Product List | Glossary Off
Versions: 1 2 3 4 5 6 7 8 9 10 11 12 13 14 15 16 17 18 19 20 21 22 23 24 25 26 27 28 29 30 31 32 33 34 35 36 37 38 39 40 41 42 43 44 45 46 47 48 49 50

471
ASUS43 KFGF 060831
RWRFGF
PRAIRIE TO PINES  WEATHER ROUNDUP
NATIONAL WEATHER SERVICE EASTERN NORTH DAKOTA/GRAND FORKS ND
200 AM CST SAT FEB 06 2016

 **SATELLITE DATA USED TO AUGMENT SKY COVER AT AUTOMATED STATIONS**
 *****  WEATHER ACROSS EASTERN NORTH DAKOTA  *****

CITY           SKY/WX    TMP DP  RH WIND       PRES   REMARKS
GRAND FORKS    CLOUDY    23  18  81 S6        29.99F WCI  16
GRAND FRKS AFB CLOUDY    22  18  83 S7        29.97F WCI  14
GRAND FRKS NWS   N/A     23 N/A N/A S10         N/A  WCI  12
DEVILS LAKE    PTCLDY    24  20  84 SE3       29.92F
FARGO          CLOUDY    22  16  78 S13       30.03F WCI  10
WAHPETON ARPT  CLOUDY   N/A N/A N/A SE6       30.06F
$$

 ***** WEATHER ACROSS CENTRAL AND WESTERN NORTH DAKOTA  *****

CITY           SKY/WX    TMP DP  RH WIND       PRES   REMARKS
BISMARCK       CLEAR     25  19  78 CALM      29.97F
MINOT          CLOUDY    31  21  66 S13       29.84F WCI  21
JAMESTOWN      CLOUDY    23  19  85 S7        29.95F WCI  15
MINOT AFB      CLOUDY    24  22  90 CALM      29.83F
GARRISON         N/A     25  21  85 SW7       29.89F WCI  17
WILLISTON      PTCLDY    30  24  78 SW8       29.86F WCI  22
DICKINSON      PTCLDY    31  21  66 SW17      29.91F WCI  19
HETTINGER      PTCLDY    26  19  74 W9        30.00F WCI  17
$$

 *****  OTHER AIRPORT OBSERVATIONS IN OUR AREA  *****

CITY           SKY/WX    TMP DP  RH WIND       PRES   REMARKS
WALHALLA       FAIR      23  23 100 S5        29.94F WCI  17
GRAFTON AIRPOR FAIR      21  19  93 S7        29.98F WCI  13
VALLEY CITY AR PTSUNNY   19  19 100 S8        29.99F WCI   9
CANDO          PTSUNNY   16  16 100 SE9       29.92F WCI   4
CAVALIER APRT  FAIR      21  18  86 S6        29.95F WCI  14
GWINNER          N/A     23  21  93 S13       30.02F WCI  11
SHEYENNE NWR     N/A     16  13  87 SW3       29.95
ROLLA          CLOUDY    18  18 100 SE7       29.87F WCI   8
 ***** THE ABOVE OBSERVATIONS ARE NON NWS ARE NOT QUALITY
       CONTROLLED AND MAY MIS-REPORT RAIN FOR SNOW...
$$

  *****  WEATHER ACROSS NORTHERN MINNESOTA  *****

CITY           SKY/WX    TMP DP  RH WIND       PRES   REMARKS
FLAG ISLAND    CLOUDY    18  16  93 SE3       29.98F
WARROAD        CLOUDY    16  12  86 CALM      30.00F
ROSEAU         CLOUDY    18  14  86 S5        29.99S WCI  11
HALLOCK        CLOUDY    19  18  93 S8        29.96F WCI   9
THF RVR FALLS  CLOUDY    19  18  93 S8        29.99F WCI   9
BAUDETTE       CLOUDY    19  13  77 S5        29.99F WCI  12
WASKISH        CLOUDY    16  14  93 CALM      30.01F
CROOKSTON      CLOUDY    21  19  93 S10       30.01F WCI  10
$$
  *****  WEATHER ACROSS CENTRAL AND WEST MINNESOTA  *****

CITY           SKY/WX    TMP DP  RH WIND       PRES   REMARKS
FOSSTON        PTCLDY    18  16  93 S6        30.01F WCI   9
BEMIDJI        CLOUDY    17  16  94 S3        30.01F
PARK RAPIDS    CLOUDY    20  18  92 S7        30.03F FOG     WCI  11
ELBOW LAKE     FAIR      13  11  93 E5        30.08F WCI   5
WADENA         FOG       18  18 100 S5        30.06F VSB 3/4 WCI  11
DETROIT LAKES  CLOUDY    21  19  93 S5        30.04F FOG     WCI  15
MOORHEAD       CLOUDY    18  16  93 S12       30.03F WCI   5
FERGUS FALLS   PTCLDY    16  14  93 SE5       30.10F WCI   9
MORRIS MN      FOG       10   9  92 S3        30.09F VSB 1/2
STAPLES        CLOUDY    18  18 100 S5        30.08S FOG     WCI  11
$$
  *****  WEATHER ELSEWHERE ACROSS MINNESOTA  *****

CITY           SKY/WX    TMP DP  RH WIND       PRES   REMARKS
DULUTH         CLOUDY    19  13  77 W9        30.04S WCI   8
INTRNTL FALLS  CLOUDY    20  15  81 SW5       30.01F WCI  13
ELY            CLOUDY    19  16  86 SW8       30.01F WCI   9
CLOQUET        CLOUDY    21  16  79 SW5       30.06S WCI  15
WHEATON        CLOUDY    23  19  86 S9        30.09F WCI  13
BRAINERD       CLOUDY    19  16  88 SW7       30.08S WCI  10
HIBBING        CLOUDY    18  16  92 SW3       30.03F
ALEXANDRIA     CLOUDY    17  15  92 S5        30.09F FOG     WCI  10
SAINT CLOUD    CLOUDY    24  20  84 W8        30.12S WCI  15
MINNEAPOLIS    CLOUDY    26  22  84 SW6       30.16S FOG     WCI  19
$$

  *****  WEATHER ACROSS SOUTH DAKOTA  *****

CITY           SKY/WX    TMP DP  RH WIND       PRES   REMARKS
SIOUX FALLS    FOG       22  20  92 CALM      30.17F VSB 1/4
BROOKINGS      CLOUDY    18  16  93 S6        30.13F FOG     WCI   9
WATERTOWN      CLOUDY    14  10  84 S7        30.10F WCI   4
HURON          CLEAR     23  20  88 S8        30.13F WCI  14
SISSETON         N/A     28  20  71 W9        30.06F WCI  19
ABERDEEN       CLEAR     23  19  85 S7        30.07F WCI  15
MITCHELL       CLEAR     25  22  88 SW9       30.17F WCI  15
PIERRE         CLEAR     28  23  81 SW13      30.09F WCI  17
MOBRIDGE       CLEAR     27  22  81 SE8       30.01F WCI  19
RAPID CITY     CLOUDY    26  16  65 CALM      30.09F
$$

  *****  SOME WEATHER IN NEARBY STATES *****

CITY           SKY/WX    TMP DP  RH WIND       PRES   REMARKS
GLASGOW MT     CLOUDY    36  26  67 SW9       29.86F
GREAT FALLS MT CLOUDY    43  21  41 SW25G32   29.95F
CHEYENNE WY    CLEAR     26  11  52 W17       30.20F WCI  13
SCOTTSBLUFF NE CLEAR     15   9  76 CALM      30.22F
OMAHA NE       CLOUDY    30  28  92 NW8       30.26S WCI  22
DES MOINES IA  CLOUDY    31  26  82 S6        30.24F
DAVENPORT IA   CLOUDY    28  22  78 SW7       30.29S WCI  21
CHICAGO IL     CLOUDY    27  22  81 SW7       30.28F WCI  19
EAU CLAIRE WI  CLOUDY    24  19  81 SW8       30.15F WCI  15
LA CROSSE WI   CLOUDY    26  20  77 S7        30.20F WCI  18
$$

  *****  SOME NATIONAL WEATHER *****

CITY           SKY/WX    TMP DP  RH WIND       PRES   REMARKS
LA GUARDIA NY  CLOUDY    33  18  53 NW13      30.36R WCI  24
RALEIGH NC     CLOUDY    28  23  81 CALM      30.41R
ATLANTA GA     CLOUDY    35  17  47 CALM      30.35S
NEW ORLEANS LA PTCLDY    39  30  70 CALM      30.37S
OKLAHOMA CITY  MOCLDY    42  32  67 W5        30.28S
ALBUQUERQUE NM CLEAR     29  13  51 CALM      30.47F
SALT LAKE CITY PTCLDY    25  20  81 SE9       30.53R WCI  15
LOS ANGELES CA CLEAR     64  25  22 N3        30.28S
BOISE ID       MOCLDY    35  28  75 S13       30.41F
SEATTLE WA     CLOUDY    45  38  76 SW21      30.26R
$$

*** WEATHER ACROSS MANITOBA...SASKATCHEWAN AND ONTARIO ***
                ***ONTARIO***

CITY           SKY/WX    TMP DP  RH WIND       PRES   REMARKS
GERALDTON      FLURRIES   1  -2  85 W3        29.91S
THUNDER BAY    CLOUDY    21  16  79 W6        30.01S WCI  14
SIOUX LOOKOUT  CLOUDY    12  10  92 N2        29.97
TORONTO        CLOUDY    30  23  74 SW12      30.20S WCI  21
BIG TROUT LK   CLEAR    -26 -31  75 NW5       30.08R WCI -40
PICKLE LAKE    NOT AVBL
DRYDEN         CLOUDY    14  12  92 W6        29.97S WCI   5
KENORA         FLURRIES  14  12  92 S2        29.97F
$$
                *** MANITOBA***

CITY           SKY/WX    TMP DP  RH WIND       PRES   REMARKS
BRANDON        CLOUDY    19  16  86 E5        29.86F WCI  13
DAUPHIN        MOCLDY    19  18  93 E7        29.86F WCI  10
ISLAND LAKE    CLEAR    -20 -26  76 E3        30.08F
PILOT MOUND      N/A     19  16  86 SE8         N/A  WCI   9
THE PAS        FLURRIES  10   7  85 SE14G21   29.83F WCI  -5
THOMPSON       CRYSTALS -22 -29  69 E3        30.06F
WINNIPEG       FLURRIES  18  14  86 SE8       29.96F WCI   7
LYNN LAKE      FLURRIES -13 -18  77 SE14      29.87F WCI -35
CHURCHILL      CLEAR    -36 -44  67 W6        30.19S WCI -55
$$
                ***SASKATCHEWAN***

CITY           SKY/WX    TMP DP  RH WIND       PRES   REMARKS
ESTEVAN        NOT AVBL
KINDERSLEY     CLOUDY    34  28  80 S6        29.60F
LLOYDMINSTER   PTCLDY    23  19  86 S9        29.49F WCI  13
PRINCE ALBERT  MOCLDY    14  10  85 E6        29.60F WCI   5
REGINA         CLOUDY    21  19  93 SE8       29.70F WCI  12
YORKTON        CLOUDY    23  19  86 S10       29.73F WCI  12
N. BATTLEFORD  CLOUDY    25  23  93 SE8       29.56F WCI  16
LA RONGE       CLOUDY    14  10  85 E8        29.63F WCI   3
SASKATOON      CLOUDY    28  25  86 S9        29.60F WCI  20
SWIFT CURRENT  PTCLDY    43  27  52 W24G31    29.67F
$$
NOTE: THESE ARE AUTOMATED STATIONS WITH LIMITED QUALITY CONTROL
      "FAIR" INDICATES FEW OR NO CLOUDS BELOW 12,000 FEET WITH NO
      SIGNIFICANT WEATHER AND/OR OBSTRUCTIONS TO VISIBILITY.
      SKY/WX - SKY CONDITION AND SIGNIFICANT WEATHER.
      TMP - AIR TEMPERATURE.    DP   - DEWPOINT TEMPERATURE.
      RH  - RELATIVE HUMIDITY.  PRES - PRESSURE.
      HX  - HEAT INDEX.         WCI  - WIND CHILL INDEX.
$




USA.gov is the U.S. government's official web portal to all federal, state and local government web resources and services.